2024/04/05 00:00:00,74.9, 4.0
2024/04/05 00:10:00,74.9, 4.3
2024/04/05 00:20:00,74.9, 3.8
2024/04/05 00:30:00,74.9, 4.1
2024/04/05 00:40:00,74.9, 4.1
2024/04/05 00:50:00,74.9, 4.2
2024/04/05 01:00:00,74.9, 4.0
2024/04/05 01:10:00,74.9, 3.6
2024/04/05 01:20:00,74.9, 3.6
2024/04/05 01:30:00,74.9, 3.4
2024/04/05 01:40:00,74.9, 3.4
2024/04/05 01:50:00,74.9, 3.5
2024/04/05 02:00:00,74.9, 3.3
2024/04/05 02:10:00,74.9, 3.4
2024/04/05 02:20:00,74.9, 4.2
2024/04/05 02:30:00,74.9, 3.1
2024/04/05 02:40:00,74.9, 3.3
2024/04/05 02:50:00,74.9, 3.1
2024/04/05 03:00:00,74.9, 3.4
2024/04/05 03:10:00,74.9, 2.9
2024/04/05 03:20:00,74.9, 3.2
2024/04/05 03:30:00,74.9, 3.2
2024/04/05 03:40:00,74.9, 3.1
2024/04/05 03:50:00,74.9, 3.0
2024/04/05 04:00:00,74.9, 2.9
2024/04/05 04:10:00,74.9, 2.9
2024/04/05 04:20:00,74.9, 2.8
2024/04/05 04:30:00,74.9, 2.5
2024/04/05 04:40:00,74.9, 2.6
2024/04/05 04:50:00,74.9, 2.8
2024/04/05 05:00:00,74.9, 2.5
2024/04/05 05:10:00,74.9, 2.2
2024/04/05 05:20:00,74.9, 2.3
2024/04/05 05:30:00,74.9, 2.3
2024/04/05 05:40:00,74.9, 2.3
2024/04/05 05:50:00,74.9, 2.3
2024/04/05 06:00:00,74.9, 2.2
2024/04/05 06:10:00,74.9, 2.5
2024/04/05 06:20:00,74.9, 2.4
2024/04/05 06:30:00,74.9, 2.2
2024/04/05 06:40:00,74.9, 2.7
2024/04/05 06:50:00,74.9, 1.9
2024/04/05 07:00:00,74.9, 1.9
2024/04/05 07:10:00,74.9, 2.2
2024/04/05 07:20:00,74.9, 2.9
2024/04/05 07:30:00,74.9, 3.0
2024/04/05 07:40:00,74.9, 3.4
2024/04/05 07:50:00,74.9, 3.6
2024/04/05 08:00:00,74.9, 3.9
2024/04/05 08:10:00,74.9, 4.3
2024/04/05 08:20:00,74.9, 4.6
2024/04/05 08:30:00,74.9, 4.9
2024/04/05 08:40:00,74.9, 5.0
2024/04/05 08:50:00,74.9, 5.0
2024/04/05 09:00:00,74.9, 5.6
2024/04/05 09:10:00,74.9, 5.9
2024/04/05 09:20:00,74.9, 6.2
2024/04/05 09:30:00,74.9, 6.4
2024/04/05 09:40:00,74.9, 6.7
2024/04/05 09:50:00,74.9, 7.0
2024/04/05 10:00:00,74.9, 7.2
2024/04/05 10:10:00,74.9, 7.5
2024/04/05 10:20:00,74.9, 8.0
2024/04/05 10:30:00,74.9, 8.2
2024/04/05 10:40:00,74.9, 8.4
2024/04/05 10:50:00,74.9, 8.2
2024/04/05 11:00:00,74.9, 9.1
2024/04/05 11:10:00,74.9, 8.7
2024/04/05 11:20:00,74.9, 9.2
2024/04/05 11:30:00,74.9, 9.6
2024/04/05 11:40:00,74.9, 9.7
2024/04/05 11:50:00,74.9, 9.3
2024/04/05 12:00:00,74.9,10.1
2024/04/05 12:10:00,74.9, 9.8
2024/04/05 12:20:00,74.9, 9.6
2024/04/05 12:30:00,74.9, 9.3
2024/04/05 12:40:00,74.9, 9.1
2024/04/05 12:50:00,74.9, 9.1
2024/04/05 13:00:00,74.9, 9.0
2024/04/05 13:10:00,74.9, 9.4
2024/04/05 13:20:00,74.9, 9.2
2024/04/05 13:30:00,74.9, 9.5
2024/04/05 13:40:00,74.9, 9.3
2024/04/05 13:50:00,74.9, 9.1
2024/04/05 14:00:00,74.9, 9.3
2024/04/05 14:10:00,74.9, 9.5
2024/04/05 14:20:00,74.9, 9.6
2024/04/05 14:30:00,74.9, 9.4
2024/04/05 14:40:00,74.9, 9.4
2024/04/05 14:50:00,74.9, 9.4
2024/04/05 15:00:00,74.9, 9.2
2024/04/05 15:10:00,74.9, 9.4
2024/04/05 15:20:00,74.9, 9.6
2024/04/05 15:30:00,74.9,10.0
2024/04/05 15:40:00,74.9, 9.5
2024/04/05 15:50:00,74.9, 9.7
2024/04/05 16:00:00,74.9, 9.3
2024/04/05 16:10:00,74.9, 9.4
2024/04/05 16:20:00,74.9, 9.3
2024/04/05 16:30:00,74.9, 9.6
2024/04/05 16:40:00,74.9, 8.6
2024/04/05 16:50:00,74.9, 8.4
2024/04/05 17:00:00,74.9, 8.0
2024/04/05 17:10:00,74.9, 7.9
2024/04/05 17:20:00,74.9, 7.7
2024/04/05 17:30:00,74.9, 7.6
2024/04/05 17:40:00,74.9, 7.2
2024/04/05 17:50:00,74.9, 7.1
2024/04/05 18:00:00,74.9, 6.7
2024/04/05 18:10:00,74.9, 6.4
2024/04/05 18:20:00,74.9, 6.1
2024/04/05 18:30:00,74.9, 5.7
2024/04/05 18:40:00,74.9, 5.6
2024/04/05 18:50:00,74.9, 5.5
2024/04/05 19:00:00,74.9, 5.0
2024/04/05 19:10:00,74.9, 4.9
2024/04/05 19:20:00,74.9, 4.9
2024/04/05 19:30:00,74.9, 5.0
2024/04/05 19:40:00,74.9, 4.7
2024/04/05 19:50:00,74.9, 5.0
2024/04/05 20:00:00,74.9, 4.9
2024/04/05 20:10:00,74.9, 5.0
2024/04/05 20:20:00,74.9, 4.9
2024/04/05 20:30:00,74.9, 5.1
2024/04/05 20:40:00,74.9, 4.9
2024/04/05 20:50:00,74.9, 4.9
2024/04/05 21:00:00,74.9, 5.0
2024/04/05 21:10:00,74.9, 5.0
2024/04/05 21:20:00,74.9, 5.0
2024/04/05 21:30:00,74.9, 5.0
2024/04/05 21:40:00,74.9, 5.0
2024/04/05 21:50:00,74.9, 4.7
2024/04/05 22:00:00,74.9, 4.8
2024/04/05 22:10:00,74.9, 4.6
2024/04/05 22:20:00,74.9, 4.4
2024/04/05 22:30:00,74.9, 4.0
2024/04/05 22:40:00,74.9, 4.5
2024/04/05 22:50:00,74.9, 4.7
2024/04/05 23:00:00,74.9, 4.6
2024/04/05 23:10:00,74.9, 4.7
2024/04/05 23:20:00,74.9, 4.6
2024/04/05 23:30:00,74.9, 4.6
2024/04/05 23:40:00,74.9, 4.4
2024/04/05 23:50:00,74.9, 4.2
